SITRO-AIS-53

operational
NORAD ID: 59776 Int'l Des: 2024-092 Owner: SITRO Country: RU
LEOCIRCULARRETROGRADESSO

About SITRO-AIS-53

Description loading...

Live Position

Loading 3D Globe...

Upcoming Passes

Altitude History

Altitude vs Time

uPlot chart will show altitude changes over time

Two-Line Element Set

1 59776U 24092D 26048.31631389 .00024157 00000-0 78056-3 0 9993
2 59776 97.6402 176.9983 0007849 212.4598 147.6161 15.32067956 97361
Epoch: Feb 17, 2026 • Age: 16 hours

Current Status

Altitude 483.1 km
Velocity 7.63 km/s
Sub-Earth Point 52.60°N, 27.22°E
Launch Date May 16, 2024
Age 1.7 years
Type other

Technical Details

Classification Payload
Mass 3.00 kg
Dry Mass 3.00 kg
Total Mass 3.00 kg
Length 0.30 m
Diameter 0.10 m
Span 0.30 m
Shape Box
Manufacturer SPUT
Bus Type Cubesat 3U
Phase Status In Orbit
Owner/State SITRO/RU

Large Constellations

Loading constellations...